Flag for Israel Weather past 2 weeks in Rishon LeZion, Israel

Now
93 °F

Sunny.


Feels Like: 107 °F
Forecast: 81 / 92 °F
Wind: 10 mph from West

Location: Ben Gurion International Airport

Current Time: Aug 3, 2015 at 2:23:05 PM

Latest Report: Aug 3, 2015 at 1:50 PM


Visibility: 10 mi

Pressure: 29.74 "Hg

Humidity: 59%

Dew point: 77 °F

Location of Rishon LeZionLocation

Historic Weather in Rishon LeZion — Graph

°F

Rishon LeZion temperature yesterday

Maximum temperature yesterday: 97 °F (at 12:50 PM)
Minimum temperature yesterday: 77 °F (at 5:50 AM)
Average temperature yesterday: 87 °F

Past Weeks' High & Low Weather Summary

 TemperatureHumidityPressure
High97 °F (Jul 24, 10:50 AM)89% (Jul 23, 5:50 AM)29.80 "Hg (Jul 23, 5:50 AM)
Low72 °F (Jul 24, 5:50 AM)28% (Jul 24, 10:20 AM)29.68 "Hg (Jul 19, 4:20 PM)
Average83 °F65%29.73 "Hg
* Reported Jul 19 1:20 PM — Aug 3 1:20 PM, Rishon LeZion, Weather by CustomWeather, © 2015

Note: Actual official high and low records may vary slightly from our data, if they occured in-between our weather recording intervals... More about our weather records

Advertising

Rishon LeZion weather history for previous 24 hours

 ConditionsComfort  
Time TempWeatherWind HumidityBarometerVisibility
1:20 PM
Mon, Aug 3
93 °FSunny.13 mph59%29.74 "Hg10 mi
12:50 PM91 °FSunny.12 mph67%29.74 "Hg10 mi
12:20 PM93 °FSunny.12 mph63%29.74 "Hg10 mi
11:50 AM93 °FSunny.8 mph63%29.74 "Hg10 mi
11:20 AM91 °FSunny.9 mph67%29.74 "Hg10 mi
10:50 AM93 °FSunny.7 mph59%29.74 "Hg10 mi
10:20 AM91 °FSunny.6 mph63%29.74 "Hg10 mi
9:50 AM90 °FClear.6 mph67%29.77 "Hg6 mi
9:20 AM88 °FPassing clouds.7 mph70%29.77 "Hg6 mi
8:50 AM88 °FScattered clouds.7 mph70%29.77 "Hg6 mi
8:20 AM86 °FScattered clouds.8 mph75%29.77 "Hg6 mi
7:50 AM84 °FScattered clouds.7 mph79%29.77 "Hg4 mi
7:20 AM84 °FScattered clouds.6 mph79%29.74 "Hg4 mi
6:50 AM84 °FPassing clouds.6 mph79%29.74 "Hg4 mi
6:20 AM84 °FPassing clouds.6 mph79%29.74 "Hg4 mi
5:50 AM84 °FPassing clouds.7 mph79%29.74 "Hg4 mi
5:20 AM84 °FPassing clouds.7 mph79%29.74 "Hg6 mi
4:50 AM84 °FPassing clouds.8 mph79%29.74 "Hg6 mi
4:20 AM84 °FPassing clouds.7 mph84%29.74 "Hg6 mi
3:50 AM84 °FPassing clouds.7 mph84%29.74 "Hg5 mi
3:20 AM84 °FPassing clouds.5 mph84%29.74 "Hg5 mi
2:50 AM84 °FPassing clouds.5 mph84%29.77 "Hg4 mi
2:20 AM84 °FPassing clouds.7 mph84%29.74 "Hg4 mi
1:50 AM84 °FPassing clouds.9 mph79%29.77 "Hg4 mi
1:20 AM84 °FPassing clouds.7 mph84%29.74 "Hg6 mi
12:50 AM84 °FPassing clouds.5 mph84%29.74 "Hg6 mi
12:20 AM84 °FPassing clouds.3 mph84%29.77 "Hg6 mi
11:50 PM
Sun, Aug 2
84 °FPassing clouds.3 mph84%29.74 "Hg4 mi
11:20 PM84 °FPassing clouds.6 mph84%29.74 "Hg4 mi
10:50 PM84 °FPassing clouds.6 mph84%29.74 "HgN/A
10:20 PM84 °FClear.6 mph84%29.77 "Hg10 mi
9:50 PM86 °FClear.7 mph79%29.74 "Hg10 mi
9:20 PM86 °FClear.6 mph79%29.74 "Hg10 mi
8:50 PM86 °FClear.5 mph75%29.74 "Hg10 mi
8:20 PM88 °FSunny.5 mph70%29.71 "Hg10 mi
7:50 PM88 °FSunny.10 mph70%29.71 "Hg10 mi
7:20 PM90 °FSunny.8 mph63%29.71 "Hg10 mi
6:50 PM91 °FSunny.8 mph59%29.68 "Hg10 mi
6:20 PM95 °FSunny.7 mph50%29.68 "Hg10 mi
5:50 PM95 °FSunny.7 mph50%29.68 "Hg10 mi
5:20 PM95 °FSunny.10 mph50%29.68 "Hg10 mi
4:50 PM97 °FSunny.14 mph44%29.68 "Hg10 mi
4:20 PM97 °FSunny.13 mph47%29.68 "Hg10 mi
3:50 PM95 °FSunny.14 mph53%29.68 "Hg10 mi
3:20 PM95 °FSunny.15 mph53%29.71 "Hg10 mi
2:50 PM95 °FSunny.14 mph53%29.71 "Hg10 mi
2:20 PM95 °FSunny.15 mph53%29.71 "Hg10 mi
Weather by CustomWeather, © 2015

See weather overviewHow to use our weather pages